Weather History for Denver Centennial, CO

Change the Weather History Date:

Friday, May 3, 2013

  Actual Average Record
Temperature  
Mean Temperature 43 °F -  
Max Temperature 58 °F 62 °F 79 °F (2012)
Min Temperature 27 °F 36 °F 25 °F (2008)
Degree Days  
Heating Degree Days 22    
Month to date heating degree days 92  
Moisture  
Dew Point 21 °F    
Average Humidity 52    
Maximum Humidity 81    
Minimum Humidity 22    
Precipitation  
Precipitation 0.00 in - - ()
Month to date precipitation 0.28  
Year to date precipitation 3.24  
Sea Level Pressure  
Sea Level Pressure 30.22 in    
Wind  
Wind Speed 6 mph (East)    
Max Wind Speed 17 mph    
Max Gust Speed 23 mph    
Visibility 10 miles    
Events      
Averages and records for this station are not official NWS values.
T = Trace of Precipitation, MM = Missing Value Source: NWS Daily Summary

Daily Weather History Graph

Daily Weather History Graph

Search for Another Location

Airport:

Trip Planner

Search our weather history database for the weather conditions in past years. The results will help you decide how hot, cold, wet, or windy it might be!

Date:

Astronomy

May. 03, 2013 Rise Set
Actual Time 5:57 AM MDT 7:55 PM MDT
Civil Twilight 5:28 AM MDT 8:24 PM MDT
Nautical Twilight 4:52 AM MDT 9:00 PM MDT
Astronomical Twilight 4:14 AM MDT 9:39 PM MDT
Moon 2:22 AM MDT (5/3) 1:54 PM MDT (5/3)
Length of Visible Light 14h 56m
Length of Day
13h 58m
Last Quarter, 36% of the Moon is Illuminated
May 3
Last Quarter
May 9
New
May 17
First Quarter
May 24
Full
May 31
Last Quarter

Hourly Weather History & Observations

Time (MDT) Temp. Windchill Dew Point Humidity Pressure Visibility Wind Dir Wind Speed Gust Speed Precip Events Conditions
12:53 AM 30.9 °F 22.8 °F 21.9 °F 69% 30.48 in 10.0 mi South 9.2 mph - N/A   Clear
2:53 AM 28.9 °F 25.2 °F 23.0 °F 78% 30.41 in 10.0 mi SE 3.5 mph - N/A   Clear
3:53 AM 27.0 °F 20.5 °F 21.9 °F 81% 30.40 in 10.0 mi SSE 5.8 mph - N/A   Clear
4:53 AM 28.9 °F 23.9 °F 21.0 °F 72% 30.38 in 10.0 mi SSE 4.6 mph - N/A   Clear
5:53 AM 27.0 °F 23.0 °F 21.0 °F 78% 30.36 in 10.0 mi South 3.5 mph - N/A   Clear
6:53 AM 30.9 °F 27.5 °F 23.0 °F 72% 30.35 in 10.0 mi SE 3.5 mph - N/A   Clear
7:53 AM 39.0 °F 36.8 °F 27.0 °F 62% 30.31 in 10.0 mi ESE 3.5 mph - N/A   Clear
8:53 AM 45.0 °F - 17.1 °F 33% 30.27 in 10.0 mi Calm Calm - N/A   Clear
9:53 AM 48.9 °F - 18.0 °F 29% 30.24 in 10.0 mi Calm Calm - N/A   Partly Cloudy
10:53 AM 51.1 °F - 18.0 °F 27% 30.23 in 10.0 mi Variable 4.6 mph - N/A   Partly Cloudy
11:53 AM 54.0 °F - 17.1 °F 23% 30.19 in 10.0 mi NNE 9.2 mph 17.3 mph N/A   Partly Cloudy
12:53 PM 55.9 °F - 18.0 °F 23% 30.17 in 10.0 mi NE 11.5 mph 18.4 mph N/A   Partly Cloudy
1:53 PM 55.9 °F - 18.0 °F 23% 30.16 in 10.0 mi North 10.4 mph 21.9 mph N/A   Scattered Clouds
2:53 PM 57.0 °F - 19.9 °F 24% 30.14 in 10.0 mi NE 9.2 mph 20.7 mph N/A   Scattered Clouds
3:53 PM 55.9 °F - 21.0 °F 26% 30.12 in 10.0 mi North 8.1 mph - N/A   Scattered Clouds
4:53 PM 55.9 °F - 21.9 °F 27% 30.10 in 10.0 mi NE 9.2 mph - N/A   Scattered Clouds
5:53 PM 55.0 °F - 23.0 °F 29% 30.11 in 10.0 mi NNE 8.1 mph - N/A   Mostly Cloudy
6:53 PM 54.0 °F - 21.9 °F 29% 30.09 in 10.0 mi NNE 8.1 mph - N/A   Mostly Cloudy
7:53 PM 51.1 °F - 23.0 °F 33% 30.09 in 10.0 mi ENE 10.4 mph - N/A   Mostly Cloudy
8:53 PM 48.9 °F - 21.0 °F 33% 30.09 in 10.0 mi East 3.5 mph - N/A   Mostly Cloudy
9:53 PM 46.0 °F 44.8 °F 23.0 °F 40% 30.10 in 10.0 mi East 3.5 mph - N/A   Mostly Cloudy
10:53 PM 43.0 °F 41.3 °F 23.0 °F 45% 30.10 in 10.0 mi South 3.5 mph - N/A   Mostly Cloudy
11:53 PM 39.9 °F 37.8 °F 24.1 °F 53% 30.10 in 10.0 mi South 3.5 mph - N/A   Scattered Clouds